Flag for Ireland Weather past 2 weeks in Dublin, Ireland

Now
43 °F

Drizzle. Broken clouds.


Feels Like: 36 °F
Forecast: 40 / 48 °F
Wind: 12 mph from Southwest

Location: Dublin Airport

Current Time: Jan 27, 2015 at 10:55:48 AM

Latest Report: Jan 27, 2015 at 10:30 AM


Visibility: N/A

Pressure: 30.33 "Hg

Humidity: 93%

Dew point: 41 °F

Location of DublinLocation

Historic Weather in Dublin — Graph

°F

Dublin temperature yesterday

Maximum temperature yesterday: 46 °F (at 12:00 AM)
Minimum temperature yesterday: 39 °F (at 6:00 AM)
Average temperature yesterday: 42 °F

Past Weeks' High & Low Weather Summary

 TemperatureHumidityPressure
High52 °F (Jan 14, 8:30 PM)100% (Jan 16, 12:00 AM)30.42 "Hg (Jan 16, 12:00 AM)
Low21 °F (Jan 19, 8:00 AM)57% (Jan 12, 2:00 PM)28.65 "Hg (Jan 14, 9:00 PM)
Average38 °F87%29.81 "Hg
* Reported Jan 12 9:00 AM — Jan 27 9:30 AM, Dublin, Weather by CustomWeather, © 2014

Note: Actual official high and low records may vary slightly from our data, if they occured in-between our weather recording intervals... More about our weather records

Advertising

Dublin weather history for previous 24 hours

 ConditionsComfort  
Time TempWeatherWind HumidityBarometerVisibility
9:30 AM
Jan 27
43 °FBroken clouds.12 mph93%30.36 "HgN/A
9:00 AM43 °FPartly sunny.10 mph87%30.36 "HgN/A
8:30 AM41 °FPartly sunny.10 mph93%30.36 "HgN/A
8:00 AM43 °FPartly cloudy.12 mph87%30.36 "HgN/A
7:30 AM41 °FPassing clouds.12 mph93%30.36 "HgN/A
7:00 AM41 °FPartly cloudy.8 mph93%30.36 "HgN/A
6:30 AM41 °FPassing clouds.9 mph93%30.36 "HgN/A
6:00 AM43 °FPassing clouds.14 mph87%30.36 "HgN/A
5:30 AM41 °FPassing clouds.13 mph93%30.36 "HgN/A
5:00 AM41 °FPartly cloudy.15 mph93%30.36 "HgN/A
4:30 AM41 °FPassing clouds.17 mph93%30.36 "HgN/A
4:00 AM41 °FPassing clouds.20 mph93%30.39 "HgN/A
3:30 AM41 °FPartly cloudy.15 mph93%30.39 "HgN/A
3:00 AM41 °FPartly cloudy.13 mph93%30.39 "HgN/A
2:30 AM41 °FPartly cloudy.16 mph93%30.39 "HgN/A
2:00 AM41 °FPassing clouds.13 mph93%30.42 "HgN/A
1:30 AM41 °FPartly cloudy.13 mph87%30.39 "HgN/A
1:00 AM41 °FPartly cloudy.13 mph87%30.42 "HgN/A
12:30 AM41 °FPartly cloudy.10 mph87%30.42 "HgN/A
12:00 AM41 °FPassing clouds.14 mph87%30.42 "HgN/A
11:30 PM
Jan 26
41 °FPartly cloudy.15 mph87%30.42 "HgN/A
11:00 PM41 °FPartly cloudy.15 mph87%30.39 "HgN/A
10:30 PM41 °FPassing clouds.14 mph87%30.39 "HgN/A
10:00 PM41 °FPassing clouds.14 mph87%30.39 "HgN/A
9:30 PM41 °FPassing clouds.13 mph87%30.39 "HgN/A
9:00 PM41 °FPartly cloudy.14 mph87%30.42 "HgN/A
8:30 PM41 °FPartly cloudy.13 mph87%30.42 "HgN/A
8:00 PM41 °FPartly cloudy.10 mph87%30.39 "HgN/A
7:30 PM41 °FPassing clouds.15 mph87%30.39 "HgN/A
7:00 PM41 °FPassing clouds.12 mph87%30.39 "HgN/A
6:30 PM41 °FPartly cloudy.13 mph87%30.39 "HgN/A
6:00 PM41 °FPartly cloudy.12 mph87%30.39 "HgN/A
5:30 PM43 °FPartly cloudy.13 mph81%30.36 "HgN/A
5:00 PM43 °FPartly cloudy.13 mph81%30.36 "HgN/A
4:30 PM43 °FBroken clouds.17 mph81%30.33 "HgN/A
4:00 PM45 °FBroken clouds.16 mph76%30.33 "HgN/A
3:30 PM45 °FPartly sunny.16 mph76%30.33 "HgN/A
3:00 PM43 °FBroken clouds.17 mph81%30.33 "HgN/A
2:30 PM45 °FBroken clouds.16 mph81%30.30 "HgN/A
2:00 PM45 °FBroken clouds.16 mph81%30.33 "HgN/A
1:30 PM43 °FBroken clouds.17 mph87%30.33 "HgN/A
1:00 PM43 °FBroken clouds.18 mph87%30.33 "HgN/A
12:30 PM43 °FBroken clouds.17 mph87%30.33 "HgN/A
12:00 PM43 °FBroken clouds.17 mph81%30.30 "HgN/A
11:30 AM41 °FScattered clouds.16 mph87%30.30 "HgN/A
11:00 AM41 °FPartly sunny.16 mph87%30.30 "HgN/A
10:30 AM39 °FScattered clouds.18 mph93%30.27 "HgN/A
10:00 AM39 °FScattered clouds.18 mph93%30.27 "HgN/A
Weather by CustomWeather, © 2014

See weather overviewHow to use our weather pages